�N����,����,�~����,�C��,���x,�C��,����,���ϕ���,�ő�u�ԕ���,�ő厞����,���˗�,�I�_���x,�n�����x,�ő啗���N��,DTYPE
"21/05/14","00:10",0.0,16.9,89.8,1008.1,294.8,0.7,1.1,333.2,0.00,15.3,130.0,"00:09:20",1
"21/05/14","00:20",0.0,16.6,90.0,1007.6,301.5,0.8,1.3,320.3,0.00,15.0,130.0,"00:19:52",1
"21/05/14","00:30",0.0,16.8,90.2,1007.8,340.8,1.1,2.6,331.0,0.00,15.2,130.0,"00:29:20",1
"21/05/14","00:40",0.0,16.8,90.5,1007.6,340.1,1.0,1.7,328.8,0.00,15.3,130.0,"00:31:04",1
"21/05/14","00:50",0.0,16.7,90.7,1007.8,339.5,0.8,1.7,323.4,0.00,15.2,130.0,"00:49:36",1
"21/05/14","01:00",0.0,16.9,90.9,1007.8,321.1,1.8,3.3,339.8,0.00,15.4,130.0,"00:56:00",1
"21/05/14","01:10",0.0,17.2,90.9,1007.8,324.0,2.6,4.0,318.4,0.00,15.7,130.0,"01:00:48",1
"21/05/14","01:20",0.0,17.1,90.8,1007.8,314.2,1.1,3.1,322.8,0.00,15.6,130.0,"01:10:48",1
"21/05/14","01:30",0.0,16.6,90.8,1008.1,330.7,1.1,1.6,330.8,0.00,15.1,130.0,"01:28:08",1
"21/05/14","01:40",0.0,16.1,91.0,1007.8,314.8,0.8,1.4,327.7,0.00,14.7,130.0,"01:33:52",1
"21/05/14","01:50",0.0,15.8,91.3,1007.6,305.6,0.7,1.2,309.8,0.00,14.4,130.0,"01:40:02",1
"21/05/14","02:00",0.0,15.6,91.4,1007.6,322.9,1.1,2.1,341.9,0.00,14.2,130.0,"01:52:48",1
"21/05/14","02:10",0.0,15.6,91.7,1007.6,296.4,0.5,1.6,329.8,0.00,14.3,130.0,"02:09:36",1
"21/05/14","02:20",0.0,15.7,91.8,1007.8,331.0,1.3,2.1,338.8,0.00,14.4,130.0,"02:12:40",1
"21/05/14","02:30",0.0,15.3,91.9,1008.1,303.8,0.8,1.8,301.6,0.00,14.0,130.0,"02:20:16",1
"21/05/14","02:40",0.0,15.1,92.2,1007.8,286.7,0.6,1.6,314.2,0.00,13.9,130.0,"02:38:24",1
"21/05/14","02:50",0.0,15.8,92.6,1008.3,323.5,1.8,2.8,325.1,0.00,14.6,130.0,"02:48:32",1
"21/05/14","03:00",0.0,16.2,92.6,1008.1,314.5,1.6,2.5,321.9,0.00,15.0,130.0,"02:50:32",1
"21/05/14","03:10",0.0,16.0,92.7,1008.3,73.9,0.2,0.8,144.8,0.00,14.9,130.0,"03:00:48",1
"21/05/14","03:20",0.0,16.1,93.0,1008.3,154.5,0.5,1.7,338.5,0.00,15.0,130.0,"03:19:28",1
"21/05/14","03:30",0.0,16.2,93.0,1008.3,338.6,1.0,1.7,333.5,0.00,15.1,130.0,"03:23:20",1
"21/05/14","03:40",0.0,16.1,93.2,1008.6,315.3,0.7,1.4,316.9,0.00,15.0,130.0,"03:36:48",1
"21/05/14","03:50",0.0,16.1,93.3,1008.6,274.8,0.7,1.1,330.0,0.00,15.1,130.0,"03:40:02",1
"21/05/14","04:00",0.0,16.1,93.4,1008.3,310.1,0.6,1.2,324.4,0.00,15.1,130.0,"03:53:04",1
"21/05/14","04:10",0.0,16.0,93.5,1008.3,336.2,0.5,1.7,319.7,0.00,15.0,130.0,"04:08:08",1
"21/05/14","04:20",0.0,15.9,93.6,1008.6,315.0,0.6,1.3,329.9,0.00,14.9,130.0,"04:10:40",1
"21/05/14","04:30",0.0,15.7,93.7,1008.8,309.2,1.0,1.7,319.2,0.00,14.7,130.0,"04:27:28",1
"21/05/14","04:40",0.0,15.4,93.9,1009.3,310.1,0.8,1.7,323.6,0.00,14.5,130.0,"04:34:00",1
"21/05/14","04:50",0.0,15.4,94.1,1009.0,309.1,1.2,1.9,331.9,0.00,14.5,130.0,"04:49:12",1
"21/05/14","05:00",0.0,15.2,94.2,1009.0,305.4,1.1,1.3,332.4,0.00,14.3,130.0,"04:51:52",1
"21/05/14","05:10",0.0,15.2,94.3,1009.3,289.7,1.1,1.2,292.8,0.00,14.3,130.0,"05:00:08",1
"21/05/14","05:20",0.0,15.2,94.4,1008.8,315.0,1.0,1.3,319.6,0.00,14.3,130.0,"05:18:16",1
"21/05/14","05:30",0.0,15.3,94.5,1009.3,337.1,1.0,1.4,345.0,0.00,14.5,130.0,"05:22:48",1
"21/05/14","05:40",0.0,15.0,94.7,1009.0,321.5,1.3,1.9,322.2,0.00,14.2,130.0,"05:30:48",1
"21/05/14","05:50",0.0,15.1,94.9,1009.3,318.3,0.8,1.7,325.5,0.00,14.3,130.0,"05:49:04",1
"21/05/14","06:00",0.0,15.4,94.9,1009.7,324.3,1.2,1.4,323.3,0.00,14.6,130.0,"05:56:24",1
"21/05/14","06:10",0.0,15.5,94.9,1009.7,310.0,1.0,1.6,323.2,0.01,14.7,130.0,"06:01:44",1
"21/05/14","06:20",0.0,16.2,95.0,1010.2,286.5,0.7,1.1,273.0,0.03,15.4,130.0,"06:14:40",1
"21/05/14","06:30",0.0,16.9,95.0,1010.0,330.5,0.7,1.1,327.3,0.05,16.1,130.0,"06:29:04",1
"21/05/14","06:40",0.0,17.6,94.9,1010.2,330.9,1.0,1.7,335.8,0.08,16.8,130.0,"06:33:44",1
"21/05/14","06:50",0.0,18.0,94.7,1010.2,322.8,0.6,1.1,342.8,0.08,17.2,130.0,"06:44:08",1
"21/05/14","07:00",0.0,18.6,94.8,1010.0,277.6,0.5,0.9,269.8,0.10,17.8,130.0,"06:55:04",1
"21/05/14","07:10",0.0,19.4,94.6,1010.2,343.5,0.5,1.0,339.1,0.13,18.6,130.0,"07:06:16",1
"21/05/14","07:20",0.0,19.4,94.2,1010.2,69.7,0.3,1.0,108.8,0.09,18.5,130.0,"07:11:36",1
"21/05/14","07:30",0.0,19.4,94.0,1010.9,292.9,0.3,0.9,318.5,0.06,18.4,130.0,"07:20:02",1
"21/05/14","07:40",0.0,19.6,94.0,1010.9,318.3,0.8,1.4,328.6,0.08,18.6,130.0,"07:39:36",1
"21/05/14","07:50",0.0,19.2,92.8,1010.7,273.7,0.6,1.0,312.7,0.11,18.0,130.0,"07:40:08",1
"21/05/14","08:00",0.0,19.4,93.5,1011.2,256.0,0.8,1.4,242.7,0.11,18.4,130.0,"07:51:36",1
"21/05/14","08:10",0.0,19.5,92.8,1010.4,246.9,0.5,1.3,240.0,0.10,18.3,130.0,"08:02:32",1
"21/05/14","08:20",0.0,19.9,92.7,1010.2,209.6,0.5,1.1,196.1,0.12,18.7,130.0,"08:14:00",1
"21/05/14","08:30",0.0,19.9,92.1,1010.7,282.7,0.7,1.1,313.2,0.12,18.6,130.0,"08:22:00",1
"21/05/14","08:40",0.0,19.9,91.2,1010.0,11.9,0.5,1.0,296.3,0.15,18.5,130.0,"08:30:48",1
"21/05/14","08:50",0.0,20.5,90.1,1010.0,353.6,0.6,1.4,239.1,0.19,18.9,130.0,"08:49:12",1
"21/05/14","09:00",0.0,21.6,88.4,1009.7,333.7,0.5,1.4,54.2,0.34,19.6,130.0,"08:50:02",1
"21/05/14","09:10",0.0,22.6,85.1,1009.7,20.9,0.7,1.8,112.1,0.44,20.0,130.0,"09:00:40",1
"21/05/14","09:20",0.0,23.4,79.8,1009.3,88.7,0.8,2.1,125.3,0.47,19.8,130.0,"09:14:00",1
"21/05/14","09:30",0.0,23.7,74.8,1008.8,135.1,1.1,2.9,113.2,0.40,19.0,130.0,"09:27:04",1
"21/05/14","09:40",0.0,23.6,74.0,1008.3,137.5,0.6,1.8,138.7,0.26,18.7,130.0,"09:31:36",1
"21/05/14","09:50",0.0,24.7,73.8,1008.3,166.4,0.7,1.9,156.2,0.49,19.8,130.0,"09:45:04",1
"21/05/14","10:00",0.0,24.9,71.9,1008.3,166.6,1.2,2.7,201.2,0.45,19.5,130.0,"09:54:16",1
"21/05/14","10:10",0.0,24.3,71.0,1007.8,135.7,1.3,2.6,179.6,0.29,18.7,130.0,"10:01:20",1
"21/05/14","10:20",0.0,24.3,70.8,1008.1,113.0,0.7,2.1,126.5,0.31,18.7,130.0,"10:14:08",1
"21/05/14","10:30",0.0,24.7,70.9,1007.6,134.1,1.2,2.1,171.7,0.37,19.1,130.0,"10:29:04",1
"21/05/14","10:40",0.0,24.8,70.4,1007.4,172.5,1.0,2.0,173.4,0.27,19.1,130.0,"10:30:16",1
"21/05/14","10:50",0.0,25.6,69.5,1007.6,148.7,0.7,2.1,175.2,0.51,19.6,130.0,"10:43:44",1
"21/05/14","11:00",0.0,26.5,67.7,1007.8,142.9,1.3,3.1,143.9,0.59,20.1,130.0,"10:59:28",1
"21/05/14","11:10",0.0,27.0,66.7,1007.8,126.0,0.8,2.2,120.3,0.60,20.3,130.0,"11:05:04",1
"21/05/14","11:20",0.0,26.8,64.2,1007.8,126.4,1.7,3.4,136.4,0.61,19.5,130.0,"11:16:48",1
"21/05/14","11:30",0.0,27.6,65.2,1007.1,158.5,1.5,2.8,193.7,0.65,20.5,130.0,"11:23:12",1
"21/05/14","11:40",0.0,27.7,63.5,1007.6,154.9,1.2,2.7,183.4,0.54,20.2,130.0,"11:36:40",1
"21/05/14","11:50",0.0,28.0,62.9,1007.6,157.0,1.8,3.3,189.5,0.64,20.3,130.0,"11:45:52",1
"21/05/14","12:00",0.0,27.9,61.7,1007.6,165.9,1.2,2.5,185.1,0.43,19.9,130.0,"11:54:08",1
"21/05/14","12:10",0.0,27.2,61.1,1007.1,151.1,1.1,2.4,123.2,0.20,19.1,130.0,"12:03:12",1
"21/05/14","12:20",0.0,27.7,62.2,1006.9,206.4,1.0,2.2,230.2,0.49,19.9,130.0,"12:14:48",1
"21/05/14","12:30",0.0,28.7,60.2,1007.4,242.6,1.3,3.2,218.4,0.67,20.3,130.0,"12:29:20",1
"21/05/14","12:40",0.0,28.5,57.2,1007.4,283.2,1.3,4.0,223.9,0.65,19.3,130.0,"12:30:24",1
"21/05/14","12:50",0.0,28.4,57.7,1007.1,252.0,1.3,5.1,210.4,0.50,19.3,130.0,"12:48:32",1
"21/05/14","13:00",0.0,27.7,59.0,1007.1,188.0,1.6,2.8,162.9,0.30,19.0,130.0,"12:55:04",1
"21/05/14","13:10",0.0,27.6,59.7,1006.9,158.8,0.8,2.8,126.7,0.20,19.1,130.0,"13:09:20",1
"21/05/14","13:20",0.0,27.9,59.6,1006.0,203.4,1.3,3.6,225.7,0.30,19.4,130.0,"13:11:20",1
"21/05/14","13:30",0.0,28.6,59.4,1006.2,340.1,0.8,2.4,354.8,0.41,20.0,130.0,"13:20:16",1
"21/05/14","13:40",0.0,29.4,55.5,1006.4,150.7,1.1,3.1,127.3,0.46,19.6,130.0,"13:39:04",1
"21/05/14","13:50",0.0,29.6,55.0,1006.7,189.5,2.1,6.0,191.1,0.57,19.6,130.0,"13:41:20",1
"21/05/14","14:00",0.0,29.0,54.0,1006.7,192.0,1.5,3.2,232.8,0.34,18.8,130.0,"13:56:48",1
"21/05/14","14:10",0.0,30.1,53.9,1006.9,221.3,1.1,2.4,210.2,0.57,19.8,130.0,"14:09:12",1
"21/05/14","14:20",0.0,30.3,55.0,1006.9,252.7,1.3,3.1,220.2,0.44,20.3,130.0,"14:18:00",1
"21/05/14","14:30",0.0,28.9,53.4,1006.2,224.2,1.0,2.6,229.2,0.16,18.5,130.0,"14:27:20",1
"21/05/14","14:40",0.0,28.6,54.5,1006.2,204.4,1.1,2.9,207.5,0.16,18.6,130.0,"14:33:04",1
"21/05/14","14:50",0.0,28.7,54.3,1006.2,127.4,0.8,1.7,121.2,0.14,18.6,130.0,"14:47:52",1
"21/05/14","15:00",0.0,28.4,55.8,1006.0,66.6,1.5,3.3,129.3,0.16,18.8,130.0,"14:51:52",1
"21/05/14","15:10",0.0,29.1,54.5,1006.0,6.9,0.8,1.9,12.9,0.28,19.0,130.0,"15:02:16",1
"21/05/14","15:20",0.0,29.7,51.7,1006.2,349.3,0.7,2.5,351.2,0.24,18.7,130.0,"15:17:36",1
"21/05/14","15:30",0.0,29.7,50.8,1006.2,319.2,1.3,2.8,339.0,0.32,18.5,130.0,"15:26:56",1
"21/05/14","15:40",0.0,29.9,51.2,1006.0,321.6,1.5,4.3,340.2,0.32,18.8,130.0,"15:34:48",1
"21/05/14","15:50",0.0,30.2,49.2,1006.2,287.8,1.2,2.8,322.2,0.35,18.4,130.0,"15:49:20",1
"21/05/14","16:00",0.0,30.1,49.4,1006.2,311.5,1.5,3.7,342.0,0.33,18.4,130.0,"15:52:32",1
"21/05/14","16:10",0.0,30.1,49.3,1006.4,325.3,1.6,3.7,320.2,0.31,18.4,130.0,"16:06:16",1
"21/05/14","16:20",0.0,30.2,47.9,1006.9,349.3,1.2,2.7,353.1,0.30,18.0,130.0,"16:19:04",1
"21/05/14","16:30",0.0,29.8,48.1,1006.2,290.6,1.3,2.5,348.9,0.26,17.7,130.0,"16:21:20",1
"21/05/14","16:40",0.0,30.2,47.2,1006.7,318.5,1.2,3.5,338.8,0.25,17.8,130.0,"16:30:02",1
"21/05/14","16:50",0.0,29.4,49.3,1006.7,342.7,1.5,3.3,352.0,0.14,17.7,130.0,"16:42:32",1
"21/05/14","17:00",0.0,29.0,49.6,1006.2,345.9,1.7,3.6,340.4,0.15,17.4,130.0,"16:56:40",1
"21/05/14","17:10",0.0,28.4,51.6,1005.7,345.6,1.7,2.9,344.5,0.10,17.5,130.0,"17:01:44",1
"21/05/14","17:20",0.0,28.3,51.3,1005.7,1.8,1.3,2.9,341.0,0.09,17.3,130.0,"17:11:36",1
"21/05/14","17:30",0.0,28.0,52.0,1005.2,9.7,1.1,2.5,37.2,0.05,17.3,130.0,"17:22:32",1
"21/05/14","17:40",0.0,27.8,53.7,1004.8,341.6,1.1,2.6,345.2,0.04,17.6,130.0,"17:34:32",1
"21/05/14","17:50",0.0,27.3,55.0,1005.0,339.8,1.3,3.4,339.4,0.02,17.5,130.0,"17:48:00",1
"21/05/14","18:00",0.0,27.0,57.6,1005.0,339.6,1.6,3.1,351.5,0.02,18.0,130.0,"17:54:40",1
"21/05/14","18:10",0.0,26.8,58.1,1005.2,335.2,2.2,3.3,338.7,0.02,17.9,130.0,"18:09:20",1
"21/05/14","18:20",0.0,26.6,59.1,1005.5,339.8,1.7,3.6,347.7,0.02,18.0,130.0,"18:10:56",1
"21/05/14","18:30",0.0,26.4,60.0,1005.7,328.0,1.5,2.7,340.1,0.01,18.1,130.0,"18:20:02",1
"21/05/14","18:40",0.0,26.0,61.1,1006.0,334.8,1.5,2.5,328.6,0.00,18.0,130.0,"18:32:32",1
"21/05/14","18:50",0.0,25.7,62.7,1006.2,344.7,1.3,2.2,341.9,0.00,18.1,130.0,"18:45:04",1
"21/05/14","19:00",0.0,25.4,65.3,1006.7,340.7,1.7,3.4,335.6,0.00,18.5,130.0,"18:57:28",1
"21/05/14","19:10",0.0,25.1,67.1,1006.7,337.9,2.1,4.0,326.0,0.00,18.6,130.0,"19:03:12",1
"21/05/14","19:20",0.0,24.7,68.4,1006.9,340.8,1.8,3.3,346.5,0.00,18.5,130.0,"19:18:00",1
"21/05/14","19:30",0.0,24.4,69.6,1006.9,321.9,2.1,4.0,336.0,0.00,18.5,130.0,"19:20:32",1
"21/05/14","19:40",0.0,23.9,70.9,1007.1,337.9,2.3,4.4,340.8,0.00,18.3,130.0,"19:36:48",1
"21/05/14","19:50",0.0,23.2,71.9,1007.4,343.8,2.0,3.5,332.6,0.00,17.9,130.0,"19:40:56",1
"21/05/14","20:00",0.0,22.9,72.1,1007.6,346.0,1.5,2.7,342.8,0.00,17.6,130.0,"19:57:12",1
"21/05/14","20:10",0.0,22.5,72.9,1007.8,328.1,1.6,2.6,335.0,0.00,17.4,130.0,"20:09:12",1
"21/05/14","20:20",0.0,22.0,73.8,1008.1,272.9,0.6,1.7,313.8,0.00,17.2,130.0,"20:10:16",1
"21/05/14","20:30",0.0,21.8,74.4,1008.1,324.0,0.8,2.1,324.9,0.00,17.1,130.0,"20:21:20",1
"21/05/14","20:40",0.0,21.5,75.4,1008.1,314.5,0.8,1.8,332.9,0.00,17.0,130.0,"20:38:40",1
"21/05/14","20:50",0.0,21.3,76.5,1008.1,331.6,1.0,1.7,341.5,0.00,17.0,130.0,"20:40:16",1
"21/05/14","21:00",0.0,20.9,77.8,1008.6,325.2,1.1,1.7,331.2,0.00,16.9,130.0,"20:58:56",1
"21/05/14","21:10",0.0,20.6,78.9,1008.8,327.6,1.0,1.8,342.9,0.00,16.9,130.0,"21:01:36",1
"21/05/14","21:20",0.0,20.3,79.9,1008.6,310.7,1.0,1.2,333.8,0.00,16.8,130.0,"21:10:24",1
"21/05/14","21:30",0.0,20.2,80.9,1009.0,314.1,1.2,1.9,328.2,0.00,16.9,130.0,"21:26:40",1
"21/05/14","21:40",0.0,20.0,81.5,1008.8,288.2,0.7,1.0,272.0,0.00,16.8,130.0,"21:30:48",1
"21/05/14","21:50",0.0,19.9,82.0,1009.3,301.1,0.8,1.3,318.1,0.00,16.8,130.0,"21:49:36",1
"21/05/14","22:00",0.0,19.8,82.3,1009.0,317.6,1.3,1.8,327.2,0.00,16.7,130.0,"21:54:08",1
"21/05/14","22:10",0.0,19.8,82.7,1009.7,309.7,1.1,1.7,306.3,0.00,16.8,130.0,"22:05:36",1
"21/05/14","22:20",0.0,19.7,83.2,1009.3,304.7,1.1,1.8,305.6,0.00,16.8,130.0,"22:14:32",1
"21/05/14","22:30",0.0,19.7,83.6,1009.0,306.0,1.1,1.7,314.1,0.00,16.9,130.0,"22:22:40",1
"21/05/14","22:40",0.0,19.6,83.9,1009.3,308.6,1.2,1.8,315.9,0.00,16.8,130.0,"22:32:32",1
"21/05/14","22:50",0.0,19.5,84.3,1009.0,306.3,1.3,1.8,316.0,0.00,16.8,130.0,"22:48:32",1
"21/05/14","23:00",0.0,19.4,84.6,1009.3,313.0,1.1,1.7,327.1,0.00,16.8,130.0,"22:51:28",1
"21/05/14","23:10",0.0,19.3,84.9,1009.5,303.6,1.2,1.9,315.4,0.00,16.7,130.0,"23:02:00",1
"21/05/14","23:20",0.0,19.2,85.3,1009.5,279.9,0.7,1.2,323.5,0.00,16.7,130.0,"23:18:16",1
"21/05/14","23:30",0.0,19.2,85.6,1009.5,297.6,1.1,1.7,320.1,0.00,16.8,130.0,"23:27:36",1
"21/05/14","23:40",0.0,19.1,85.9,1009.7,302.7,1.1,1.6,319.3,0.00,16.7,130.0,"23:30:32",1
"21/05/14","23:50",0.0,19.0,86.3,1009.5,314.9,1.1,1.8,321.7,0.00,16.7,130.0,"23:49:44",1
"21/05/14","24:00",0.0,18.9,86.6,1009.5,303.4,1.1,1.6,303.8,0.00,16.7,130.0,"23:50:08",1
